Regional Weather Roundup
Issued by NWS Northern Indiana

Home | Current Version | Previous Version | Text Only | Print | Product List | Glossary Off
Versions: 1 2 3 4 5 6 7 8 9 10 11 12 13 14 15 16 17 18 19 20 21 22 23 24 25 26 27 28 29 30 31 32 33 34 35 36 37 38 39 40 41 42 43 44 45 46 47 48 49 50

000
ASUS43 KIWX 240900
RWRIWX

KIWX WEATHER ROUNDUP
NATIONAL WEATHER SERVICE NORTHERN INDIANA
500 AM EDT FRI MAR 24 2017

NOTE: "FAIR" INDICATES FEW OR NO CLOUDS BELOW 12,000 FEET WITH NO
SIGNIFICANT WEATHER AND/OR OBSTRUCTIONS TO VISIBILITY.

* THESE STATIONS ARE NOT UNDER NWS QUALITY CONTROL. THEY ALSO MAY NOT
  REPORT WEATHER SUCH AS PRECIPITATION OR FOG.

INZ001>027-241000-
NORTHERN INDIANA

CITY           SKY/WX    TMP DP  RH WIND       PRES   REMARKS
SOUTH BEND     CLOUDY    46  37  71 S8        29.99F
GOSHEN         CLOUDY    50  36  58 S10       30.00F
MONTICELLO*    PTCLDY    48  37  66 SE5       29.99F
ANGOLA*        CLEAR     43  32  65 S6        30.01F
FORT WAYNE     MOCLDY    45  37  73 SE8       30.04F
PERU/GRISSOM   MOCLDY    46  40  78 SE7       29.99F

$$
INZ028>050-241000-
CENTRAL INDIANA

CITY           SKY/WX    TMP DP  RH WIND       PRES   REMARKS
LAFAYETTE      PTCLDY    53  43  68 S5        29.99S
MUNCIE*        CLEAR     54  40  59 S13       30.05F
INDIANAPOLIS   PTCLDY    56  42  59 S12       30.03F

$$
MIZ043>046-050>051-056>058-064>065-071>073-077>080-241000-
SOUTHWEST LOWER MICHIGAN

CITY           SKY/WX    TMP DP  RH WIND       PRES   REMARKS
BATTLE CREEK   PTCLDY    46  38  73 SW16      29.98F
BENTON HARBOR  CLOUDY    50  36  58 S9        29.96F
COLDWATER*     MOCLDY    49  36  62 S10G16    29.99F
HILLSDALE*     PTCLDY    41  34  75 S10       30.00F
HOLLAND        CLOUDY    44  36  73 S8        29.95F
GRAND RAPIDS   CLOUDY    44  36  73 S9        29.95F
KALAMAZOO      PTCLDY    46  36  68 S9        29.98F
STURGIS*       CLOUDY    47  38  72 S10       29.99F
THREE RIVERS*  FAIR      45  37  75 S10       29.99F

$$
OHZ001>008-015>018-024>025-241000-
NORTHWEST OHIO

CITY           SKY/WX    TMP DP  RH WIND       PRES   REMARKS
DEFIANCE       PTCLDY    45  36  70 S7        30.05F
FINDLAY        CLOUDY    47  35  63 S7        30.08F
TOLEDO EXPRESS CLOUDY    43  38  82 S9        30.05F
TOLEDO METCALF MOCLDY    45  38  76 S12       30.06F
LIMA           CLOUDY    51  37  58 S14       30.09S

$$
AND FOR LAKE MICHIGAN COASTAL AND OPEN LAKE BUOY OBSERVATIONS

STATION/POSITION TEMP    WIND        PRES    VSBY  WAVE
                 AIR SEA DIR/SP/G                  HT/PER
                 (F)     (DEG/KT/KT) (MB)    (MI)  (FT/S)
CALUMET HARBOR    47     160/  5/  6 1014.1F
MICHIGAN CITY     50     160/  7/ 10   N/A
BURNS HARBOR      49     190/ 10/ 14 1015.2F

$$
&&




USA.gov is the U.S. government's official web portal to all federal, state and local government web resources and services.